| time (UTC) | temp F | wind direction | speed MPH | gust MPH | rain 1hr in | rain 24hr in | rain mn in | humidity % | barometer mb |
| 20260508100138 | 42 | 292 | 0.0 | 0.0 | 0.00 | 0.30 | 0.00 | 92 | 1019.2 |
| 20260508095220 | 42 | 292 | 0.0 | 0.0 | 0.00 | 0.30 | 0.00 | 93 | 1019.1 |
| 20260508094221 | 43 | 292 | 0.0 | 0.0 | 0.00 | 0.30 | 0.00 | 93 | 1019.0 |
| 20260508093220 | 43 | 292 | 0.0 | 0.0 | 0.00 | 0.30 | 0.00 | 93 | 1018.9 |
| 20260508091220 | 44 | 292 | 0.0 | 0.0 | 0.00 | 0.30 | 0.00 | 92 | 1018.8 |
| 20260508090221 | 45 | 292 | 0.0 | 0.0 | 0.00 | 0.30 | 0.00 | 93 | 1018.9 |
| 20260508085319 | 45 | 292 | 0.0 | 0.0 | 0.00 | 0.30 | 0.00 | 93 | 1018.9 |
| 20260508084323 | 44 | 292 | 0.0 | 0.0 | 0.00 | 0.30 | 0.00 | 93 | 1018.7 |
| 20260508084221 | 44 | 292 | 0.0 | 0.0 | 0.00 | 0.30 | 0.00 | 93 | 1018.7 |
| 20260508082221 | 45 | 292 | 0.0 | 0.0 | 0.00 | 0.30 | 0.00 | 93 | 1018.6 |
| 20260508080320 | 46 | 292 | 0.0 | 0.0 | 0.00 | 0.30 | 0.00 | 93 | 1018.4 |
| 20260508075419 | 46 | 292 | 0.0 | 0.0 | 0.00 | 0.30 | 0.00 | 93 | 1018.4 |
| 20260508074420 | 46 | 292 | 0.0 | 0.0 | 0.00 | 0.30 | 0.00 | 93 | 1018.3 |
| 20260508074322 | 46 | 292 | 0.0 | 0.0 | 0.00 | 0.30 | 0.00 | 93 | 1018.3 |
| 20260508073420 | 46 | 292 | 0.0 | 0.0 | 0.00 | 0.30 | 0.00 | 92 | 1018.3 |
| 20260508072437 | 47 | 292 | 0.0 | 0.0 | 0.00 | 0.30 | 0.00 | 92 | 1018.4 |
| 20260508071519 | 47 | 292 | 0.0 | 0.0 | 0.00 | 0.30 | 0.00 | 94 | 1018.2 |
| 20260508070521 | 47 | 360 | 0.0 | 0.0 | 0.00 | 0.30 | 0.00 | 94 | 1018.2 |
| 20260508065521 | 47 | 360 | 0.0 | 0.0 | 0.00 | 0.30 | 0.00 | 94 | 1018.2 |
| 20260508064619 | 47 | 360 | 0.0 | 0.0 | 0.00 | 0.30 | 0.00 | 94 | 1018.0 |
| 20260508063622 | 47 | 360 | 0.0 | 0.0 | 0.00 | 0.30 | 0.00 | 93 | 1018.0 |
| 20260508062621 | 46 | 355 | 1.0 | 2.0 | 0.00 | 0.30 | 0.00 | 93 | 1017.9 |
| 20260508061620 | 46 | 225 | 0.0 | 0.0 | 0.00 | 0.30 | 0.00 | 94 | 1018.0 |
| 20260508060621 | 47 | 225 | 0.0 | 0.0 | 0.00 | 0.30 | 0.00 | 94 | 1018.0 |
| 20260508055620 | 47 | 225 | 0.0 | 0.0 | 0.00 | 0.30 | 0.00 | 94 | 1018.2 |
| 20260508054636 | 47 | 225 | 0.0 | 0.0 | 0.00 | 0.31 | 0.00 | 94 | 1018.1 |
| 20260508053722 | 48 | 225 | 0.0 | 0.0 | 0.00 | 0.31 | 0.00 | 94 | 1018.1 |
| 20260508051819 | 48 | 225 | 0.0 | 0.0 | 0.00 | 0.31 | 0.00 | 93 | 1018.0 |
| 20260508050818 | 49 | 225 | 0.0 | 0.0 | 0.00 | 0.31 | 0.00 | 93 | 1018.0 |
| 20260508045822 | 49 | 225 | 0.0 | 0.0 | 0.00 | 0.32 | 0.00 | 92 | 1018.0 |
| 20260508045736 | 49 | 225 | 0.0 | 0.0 | 0.00 | 0.32 | 0.00 | 93 | 1018.0 |
| 20260508044821 | 49 | 225 | 0.0 | 0.0 | 0.00 | 0.33 | 0.00 | 94 | 1017.7 |
| 20260508043820 | 50 | 225 | 0.0 | 0.0 | 0.00 | 0.33 | 0.00 | 94 | 1017.9 |
| 20260508042821 | 50 | 292 | 0.0 | 0.0 | 0.00 | 0.33 | 0.00 | 94 | 1017.8 |
| 20260508041819 | 50 | 292 | 0.0 | 0.0 | 0.00 | 0.33 | 0.00 | 94 | 1017.6 |
| 20260508035832 | 50 | 292 | 0.0 | 0.0 | 0.00 | 0.33 | 0.33 | 94 | 1017.6 |
| 20260508034830 | 51 | 292 | 0.0 | 0.0 | 0.00 | 0.33 | 0.33 | 92 | 1017.6 |
| 20260508033833 | 51 | 292 | 0.0 | 0.0 | 0.00 | 0.33 | 0.33 | 92 | 1017.5 |
| 20260508031931 | 51 | 292 | 0.0 | 0.0 | 0.00 | 0.34 | 0.33 | 92 | 1017.5 |
| 20260508030930 | 52 | 292 | 0.0 | 0.0 | 0.00 | 0.35 | 0.33 | 93 | 1017.5 |
| 20260508025933 | 51 | 292 | 0.0 | 0.0 | 0.00 | 0.36 | 0.33 | 93 | 1017.3 |
| 20260508024933 | 52 | 292 | 0.0 | 0.0 | 0.00 | 0.36 | 0.33 | 93 | 1017.0 |
| 20260508023931 | 53 | 292 | 0.0 | 0.0 | 0.00 | 0.37 | 0.33 | 93 | 1017.2 |
| 20260508022931 | 53 | 292 | 0.0 | 0.0 | 0.00 | 0.38 | 0.33 | 93 | 1017.2 |
| 20260508021029 | 53 | 292 | 0.0 | 0.0 | 0.00 | 0.39 | 0.33 | 93 | 1016.6 |
| 20260508020030 | 54 | 292 | 0.0 | 0.0 | 0.00 | 0.39 | 0.33 | 93 | 1016.7 |
| 20260508015030 | 54 | 45 | 0.0 | 0.0 | 0.00 | 0.40 | 0.33 | 92 | 1016.5 |
| 20260508014030 | 54 | 45 | 0.0 | 0.0 | 0.00 | 0.40 | 0.33 | 91 | 1016.3 |
| 20260508013031 | 55 | 45 | 0.0 | 0.0 | 0.00 | 0.40 | 0.33 | 91 | 1016.0 |
| 20260508012048 | 54 | 45 | 0.0 | 0.0 | 0.00 | 0.40 | 0.33 | 89 | 1015.7 |
| 20260508011130 | 54 | 45 | 0.0 | 0.0 | 0.00 | 0.41 | 0.33 | 90 | 1015.6 |
| 20260508010131 | 55 | 45 | 0.0 | 0.0 | 0.00 | 0.42 | 0.33 | 90 | 1015.5 |
| 20260508005146 | 55 | 45 | 0.0 | 0.0 | 0.00 | 0.42 | 0.33 | 90 | 1015.3 |
| 20260508004131 | 56 | 45 | 0.0 | 0.0 | 0.00 | 0.42 | 0.33 | 88 | 1015.3 |
| 20260508003130 | 56 | 45 | 0.0 | 0.0 | 0.00 | 0.43 | 0.33 | 89 | 1015.2 |
| 20260508002131 | 57 | 45 | 1.0 | 3.0 | 0.00 | 0.43 | 0.33 | 87 | 1015.1 |
| 20260508001131 | 57 | 16 | 1.0 | 2.0 | 0.00 | 0.43 | 0.33 | 88 | 1015.2 |
| 20260507234130 | 58 | 41 | 1.0 | 3.0 | 0.00 | 0.43 | 0.33 | 87 | 1015.3 |
| 20260507233146 | 58 | 14 | 2.0 | 4.0 | 0.00 | 0.43 | 0.33 | 86 | 1015.0 |
| 20260507232230 | 58 | 19 | 2.0 | 4.0 | 0.00 | 0.43 | 0.33 | 87 | 1014.8 |
| 20260507231231 | 59 | 12 | 2.0 | 4.0 | 0.00 | 0.43 | 0.33 | 87 | 1014.6 |
| 20260507230330 | 59 | 4 | 1.0 | 3.0 | 0.00 | 0.43 | 0.33 | 87 | 1014.5 |
| 20260507225331 | 59 | 23 | 1.0 | 3.0 | 0.00 | 0.43 | 0.33 | 87 | 1014.4 |
| 20260507225246 | 59 | 46 | 3.0 | 6.0 | 0.00 | 0.43 | 0.33 | 87 | 1014.3 |
| 20260507224245 | 59 | 35 | 2.0 | 5.0 | 0.00 | 0.43 | 0.33 | 88 | 1014.1 |
| 20260507222232 | 58 | 34 | 3.0 | 6.0 | 0.00 | 0.43 | 0.33 | 87 | 1013.5 |
| 20260507220232 | 59 | 34 | 7.0 | 10.0 | 0.00 | 0.43 | 0.33 | 89 | 1013.4 |
| 20260507214331 | 58 | 42 | 2.0 | 6.0 | 0.00 | 0.43 | 0.33 | 88 | 1013.6 |
| 20260507213333 | 58 | 1 | 3.0 | 6.0 | 0.00 | 0.43 | 0.33 | 89 | 1013.3 |
| 20260507212345 | 58 | 29 | 5.0 | 7.0 | 0.00 | 0.43 | 0.33 | 90 | 1013.2 |
| 20260507211431 | 58 | 24 | 3.0 | 7.0 | 0.00 | 0.43 | 0.33 | 89 | 1013.3 |
| 20260507210531 | 59 | 43 | 5.0 | 10.0 | 0.00 | 0.43 | 0.33 | 89 | 1013.1 |
| 20260507205630 | 59 | 20 | 4.0 | 6.0 | 0.00 | 0.43 | 0.33 | 89 | 1012.9 |
| 20260507204630 | 59 | 6 | 5.0 | 8.0 | 0.00 | 0.43 | 0.33 | 89 | 1012.8 |
| 20260507203630 | 59 | 26 | 6.0 | 9.0 | 0.01 | 0.43 | 0.33 | 89 | 1013.1 |
| 20260507202631 | 60 | 7 | 2.0 | 5.0 | 0.05 | 0.43 | 0.33 | 91 | 1013.2 |
| 20260507201630 | 59 | 35 | 6.0 | 9.0 | 0.09 | 0.43 | 0.33 | 91 | 1012.9 |
| 20260507200630 | 59 | 38 | 5.0 | 9.0 | 0.09 | 0.43 | 0.33 | 90 | 1012.8 |
| 20260507194730 | 60 | 19 | 7.0 | 12.0 | 0.09 | 0.43 | 0.33 | 88 | 1013.0 |
| 20260507192730 | 63 | 2 | 8.0 | 12.0 | 0.05 | 0.39 | 0.28 | 78 | 1013.5 |
| 20260507191733 | 65 | 7 | 6.0 | 11.0 | 0.00 | 0.34 | 0.24 | 76 | 1011.9 |
| 20260507185730 | 68 | 10 | 6.0 | 9.0 | 0.00 | 0.34 | 0.24 | 77 | 1011.5 |
| 20260507184729 | 69 | 30 | 3.0 | 6.0 | 0.00 | 0.34 | 0.24 | 75 | 1011.9 |
| 20260507183730 | 70 | 5 | 3.0 | 7.0 | 0.00 | 0.34 | 0.24 | 74 | 1012.2 |
| 20260507182729 | 71 | 46 | 6.0 | 8.0 | 0.00 | 0.34 | 0.24 | 71 | 1012.2 |
| 20260507181730 | 74 | 29 | 4.0 | 7.0 | 0.00 | 0.34 | 0.24 | 70 | 1012.1 |
| 20260507180730 | 72 | 28 | 4.0 | 9.0 | 0.00 | 0.34 | 0.24 | 72 | 1012.2 |
| 20260507175830 | 72 | 135 | 2.0 | 5.0 | 0.00 | 0.34 | 0.24 | 74 | 1012.1 |
| 20260507174829 | 71 | 202 | 1.0 | 3.0 | 0.00 | 0.34 | 0.24 | 74 | 1012.2 |
| 20260507173829 | 71 | 184 | 3.0 | 5.0 | 0.00 | 0.34 | 0.24 | 73 | 1012.1 |
| 20260507171829 | 73 | 190 | 3.0 | 5.0 | 0.00 | 0.34 | 0.24 | 73 | 1012.6 |
| 20260507170847 | 74 | 315 | 1.0 | 3.0 | 0.00 | 0.34 | 0.24 | 72 | 1012.8 |
| 20260507165829 | 72 | 341 | 1.0 | 2.0 | 0.00 | 0.35 | 0.24 | 75 | 1012.8 |
| 20260507164830 | 72 | 292 | 0.0 | 0.0 | 0.00 | 0.35 | 0.24 | 78 | 1012.9 |
| 20260507163830 | 71 | 28 | 0.0 | 2.0 | 0.00 | 0.35 | 0.24 | 79 | 1012.9 |
| 20260507162828 | 71 | 337 | 0.0 | 1.0 | 0.00 | 0.35 | 0.24 | 79 | 1012.9 |
| 20260507162729 | 71 | 6 | 0.0 | 1.0 | 0.00 | 0.35 | 0.24 | 79 | 1012.9 |
| 20260507161730 | 70 | 337 | 2.0 | 3.0 | 0.00 | 0.35 | 0.24 | 81 | 1012.7 |
| 20260507160730 | 69 | 9 | 2.0 | 3.0 | 0.00 | 0.35 | 0.24 | 86 | 1012.5 |
| 20260507155829 | 68 | 22 | 0.0 | 1.0 | 0.00 | 0.35 | 0.24 | 88 | 1012.5 |
| 20260507154828 | 67 | 202 | 1.0 | 2.0 | 0.00 | 0.35 | 0.24 | 90 | 1012.8 |
| 20260507153830 | 66 | 180 | 0.0 | 0.0 | 0.00 | 0.35 | 0.24 | 90 | 1013.1 |
| 20260507151945 | 65 | 270 | 0.0 | 0.0 | 0.00 | 0.35 | 0.24 | 92 | 1013.3 |
| 20260507151030 | 65 | 202 | 0.0 | 1.0 | 0.00 | 0.35 | 0.24 | 92 | 1013.7 |
| 20260507144929 | 64 | 206 | 3.0 | 4.0 | 0.01 | 0.35 | 0.24 | 93 | 1013.7 |
| 20260507143929 | 64 | 180 | 1.0 | 3.0 | 0.01 | 0.35 | 0.24 | 94 | 1013.8 |
| 20260507142930 | 64 | 189 | 2.0 | 3.0 | 0.01 | 0.35 | 0.24 | 94 | 1013.5 |
| 20260507141929 | 64 | 225 | 0.0 | 0.0 | 0.01 | 0.35 | 0.24 | 95 | 1013.3 |
| 20260507140945 | 64 | 193 | 2.0 | 4.0 | 0.02 | 0.35 | 0.24 | 95 | 1013.5 |
| 20260507135930 | 63 | 180 | 0.0 | 2.0 | 0.03 | 0.34 | 0.23 | 95 | 1013.2 |
| 20260507134930 | 63 | 360 | 0.0 | 0.0 | 0.06 | 0.34 | 0.23 | 95 | 1013.4 |
| 20260507133929 | 63 | 22 | 0.0 | 2.0 | 0.10 | 0.34 | 0.23 | 95 | 1013.4 |
| 20260507132931 | 63 | 247 | 0.0 | 0.0 | 0.12 | 0.34 | 0.23 | 95 | 1013.3 |
| 20260507131930 | 63 | 180 | 0.0 | 0.0 | 0.16 | 0.34 | 0.23 | 95 | 1013.0 |
| 20260507130929 | 63 | 180 | 0.0 | 0.0 | 0.17 | 0.33 | 0.22 | 95 | 1012.9 |
| 20260507125028 | 63 | 270 | 0.0 | 0.0 | 0.14 | 0.28 | 0.17 | 94 | 1013.8 |
| 20260507124046 | 63 | 270 | 0.0 | 0.0 | 0.11 | 0.25 | 0.13 | 94 | 1014.3 |
| 20260507123127 | 63 | 268 | 0.0 | 2.0 | 0.08 | 0.22 | 0.11 | 94 | 1014.6 |
| 20260507122130 | 63 | 248 | 0.0 | 2.0 | 0.05 | 0.19 | 0.08 | 95 | 1014.9 |
| 20260507121130 | 63 | 202 | 1.0 | 3.0 | 0.02 | 0.16 | 0.05 | 95 | 1014.8 |
| 20260507120129 | 63 | 202 | 1.0 | 3.0 | 0.01 | 0.15 | 0.04 | 95 | 1014.4 |
| 20260507114128 | 62 | 225 | 0.0 | 0.0 | 0.01 | 0.15 | 0.03 | 95 | 1014.2 |
| 20260507112130 | 63 | 202 | 1.0 | 2.0 | 0.00 | 0.14 | 0.03 | 95 | 1014.1 |
| 20260507110146 | 62 | 202 | 0.0 | 0.0 | 0.00 | 0.14 | 0.03 | 95 | 1014.0 |
| 20260507105228 | 62 | 202 | 0.0 | 0.0 | 0.00 | 0.14 | 0.03 | 94 | 1013.3 |
| 20260507103246 | 63 | 202 | 0.0 | 1.0 | 0.00 | 0.14 | 0.03 | 95 | 1013.7 |
| 20260507103145 | 63 | 202 | 1.0 | 2.0 | 0.00 | 0.14 | 0.03 | 95 | 1013.6 |
| 20260507102228 | 63 | 202 | 0.0 | 2.0 | 0.00 | 0.14 | 0.03 | 95 | 1013.7 |
| 20260507101230 | 63 | 180 | 1.0 | 2.0 | 0.00 | 0.14 | 0.03 | 94 | 1013.6 |
| 20260507100228 | 63 | 180 | 2.0 | 2.0 | 0.00 | 0.14 | 0.03 | 94 | 1013.5 |